Provincetown, Massachusetts, United States (02657)
Lat: 42.06N, Lon: 70.18W
Wx Zone: MAZ022
Local Info
Past Weather Observations for Today

NOTE: This archive is for the closest National Weather Service station to Provincetown. Information may differ from the station used for current weather conditions.

Click here for Long-term Archive

Time Weather Temperature Dewpoint Humidity Pressure Winds Precip Visibility
19:56
Clear
45°F / 7°C 32°F / 0°C 61% 30.12 in
(1020 mb)
S 5.8 mph
(S 9 kph)
- 10SM
18:56
Clear
45°F / 7°C 32°F / 0°C 61% 30.09 in
(1019 mb)
S 8.1 mph
(S 13 kph)
- 10SM
17:56
Clear
46°F / 8°C 32°F / 0°C 57% 30.09 in
(1019 mb)
S 9.2 mph
(S 15 kph)
- 10SM
16:56
Clear
46°F / 8°C 28°F / -2°C 50% 30.06 in
(1018 mb)
SSE 11.5 mph
(SSE 19 kph)
- 10SM
15:56
Clear
48°F / 9°C 28°F / -2°C 46% 30.06 in
(1018 mb)
SSE 9.2 mph
(SSE 15 kph)
- 10SM
14:56
Clear
48°F / 9°C 21°F / -6°C 34% 30.04 in
(1017 mb)
ESE 6.9 mph
(ESE 11 kph)
- 10SM
13:56
Clear
50°F / 10°C 19°F / -7°C 30% 30.06 in
(1018 mb)
E 9.2 mph
(E 15 kph)
- 10SM
12:56
Clear
50°F / 10°C 25°F / -4°C 37% 30.06 in
(1018 mb)
E 8.1 mph
(E 13 kph)
- 10SM
11:56
Clear
48°F / 9°C 23°F / -5°C 37% 30.09 in
(1019 mb)
NE 9.2 mph
(NE 15 kph)
- 10SM
10:56
Clear
48°F / 9°C 21°F / -6°C 34% 30.09 in
(1019 mb)
N 6.9 mph
(N 11 kph)
- 10SM
09:56
Clear
46°F / 8°C 27°F / -3°C 46% 30.09 in
(1019 mb)
N 9.2 mph
(N 15 kph)
- 10SM
08:56
Clear
48°F / 9°C 23°F / -5°C 37% 30.09 in
(1019 mb)
NNW 10.4 mph
(NNW 17 kph)
- 10SM
07:56
Clear
46°F / 8°C 27°F / -3°C 46% 30.06 in
(1018 mb)
NW 5.8 mph
(NW 9 kph)
- 10SM
06:56
Clear
46°F / 8°C 28°F / -2°C 50% 30.06 in
(1018 mb)
N 4.6 mph
(N 7 kph)
- 10SM
05:56
Clear
45°F / 7°C 28°F / -2°C 53% 30.04 in
(1017 mb)
NE 5.8 mph
(NE 9 kph)
- 10SM
04:56
Clear
43°F / 6°C 28°F / -2°C 57% 30.01 in
(1016 mb)
NNE 6.9 mph
(NNE 11 kph)
- 10SM
03:56
Clear
43°F / 6°C 28°F / -2°C 57% 29.98 in
(1015 mb)
NE 10.4 mph
(NE 17 kph)
- 10SM
02:56
Clear
43°F / 6°C 28°F / -2°C 57% 29.95 in
(1014 mb)
NNE 11.5 mph
(NNE 19 kph)
- 10SM
01:56
Clear
45°F / 7°C 32°F / 0°C 61% 29.95 in
(1014 mb)
NNE 10.4 mph
(NNE 17 kph)
- 10SM
00:56
Clear
45°F / 7°C 34°F / 1°C 66% 29.92 in
(1013 mb)
NE 10.4 mph
(NE 17 kph)
- 10SM
Time Weather Temperature Dewpoint Humidity Pressure Winds Precip Visibility


Weather for websites

WeatherForYou.com, LLC is not responsible for any damages or problems caused by this service. Current weather conditions are obtained from the closest station including government and personal stations which may have varying degrees of accuracy. Weather forecasts are derived from the NOAA NDFD. Like all things, this site belongs to Jesus Christ... He just trusts us to maintain it. If you have any questions or comments email webmaster@weatherforyou.com

Copyright © 2016, WeatherForYou.com LLC. All rights reserved.